Home   Weather   Langley   Past weeks

Flag for Canada Past Weather in Langley, British Columbia, Canada — Yesterday and Last 2 Weeks

Now
34 °F

Chilly.


Feels Like: 34 °F
Forecast: 33 / 40 °F
Wind: 1 mph from Southeast

Location: P. Meadows Coastal Station

Current Time: Dec 11, 2016 at 12:11:15 am

Latest Report: Dec 10, 2016 at 11:00 pm


Visibility: N/A

Pressure: 29.83 "Hg

Humidity: 89%

Dew Point: 31 °F

Location of LangleyLocation

Past Weather in Langley — Graph

°F

Langley Temperature Yesterday

Maximum temperature yesterday: 34 °F (at 10:00 pm)
Minimum temperature yesterday: 30 °F (at 2:00 am)
Average temperature yesterday: 32 °F

High & Low Weather Summary for the Past Weeks

 TemperatureHumidityPressure
High47 °F (Dec 2, 5:00 pm)100% (Nov 27, 1:00 pm)30.51 "Hg (Nov 27, 1:00 pm)
Low17 °F (Dec 8, 5:00 am)30% (Dec 8, 8:00 pm)29.42 "Hg (Nov 27, 9:00 pm)
Average37 °F85%30.01 "Hg
* Reported Nov 25 11:00 pm — Dec 10 11:00 pm, Langley, Weather by CustomWeather, © 2016

Note: Actual official high and low records may vary slightly from our data, if they occured in-between our weather recording intervals... More about our weather records

Advertising

Langley Weather History for the Previous 24 Hours

Scroll right to see more
 ConditionsComfort  
Time TempWeatherWind HumidityBarometerVisibility
11:00 pm
Sat, Dec 10
34 °FChilly.1 mph89%29.83 "HgN/A
10:00 pm34 °FChilly.3 mph95%29.83 "HgN/A
9:00 pm34 °FChilly.3 mph91%29.82 "HgN/A
8:00 pm33 °FChilly.3 mph94%29.81 "HgN/A
7:00 pm33 °FChilly.2 mph94%29.80 "HgN/A
6:00 pm33 °FChilly.3 mph95%29.80 "HgN/A
5:00 pm33 °FChilly.1 mph96%29.80 "HgN/A
4:00 pm33 °FChilly.2 mph95%29.80 "HgN/A
3:00 pm33 °FChilly.6 mph95%29.80 "HgN/A
2:00 pm34 °FChilly.5 mph91%29.80 "HgN/A
1:00 pm33 °FChilly.3 mph94%29.82 "HgN/A
12:00 pm31 °FChilly.5 mph98%29.84 "HgN/A
11:00 am32 °FChilly.3 mph92%29.86 "HgN/A
10:00 am33 °FChilly.5 mph87%29.86 "HgN/A
9:00 am31 °FChilly.3 mph94%29.85 "HgN/A
8:00 am31 °FChilly.3 mph92%29.85 "HgN/A
7:00 am31 °FChilly.2 mph92%29.84 "HgN/A
6:00 am33 °FChilly.1 mph85%29.83 "HgN/A
5:00 am31 °FChilly.3 mph92%29.83 "HgN/A
4:00 am31 °FChilly.3 mph93%29.82 "HgN/A
3:00 am30 °FChilly.5 mph92%29.82 "HgN/A
2:00 am30 °FChilly.2 mph93%29.82 "HgN/A
1:00 am30 °FChilly.3 mph95%29.82 "HgN/A
12:00 am30 °FChilly.3 mph94%29.82 "HgN/A
Weather by CustomWeather, © 2016

See weather overviewHow to use our weather pages